User: anonymous   Login
Location: Caltech
(34.1382°N, 118.1253°W)
Time: 06:06:30
(UTC-08:00)
Language:

Lacrosse 5 rocket - Orbit

View from above orbital plane
View from above orbital plane
View from above satellite
View from above satellite

Ground track
Ground track

The orbit data is extracted from the following two-line orbital elements,

1 28647U 05016B   16341.25158659 0.00000600  00000-0  35390-4 0    08
2 28647  56.9980  78.7380 0124921 341.4246  18.5753 15.04696356    06
Epoch (UTC): 06 December 2016 06:02:17
Eccentricity: 0.0124921
inclination: 56.9980°
perigee height: 466 km
apogee height: 639 km
right ascension of ascending node: 78.7380°
argument of perigee: 341.4246°
revolutions per day: 15.04696356
mean anomaly at epoch: 18.5753°
orbit number at epoch: 0

The dashed part of the orbit path shows where the satellite is in the earth's shadow,  

DLR